VK4VP-5 Buderim QLD AU current weather conditions

sailwx.info

Wind from 080 at 1 knots gusting 8

Air temperature 17.2° C
Dewpoint 12.1° C

Last reported at 2017-Aug-21 19:09 UTC.
Time now 2017-Aug-21 19:29 UTC

Location: S 26°42' E 153°05'.
View on Google Maps.

See reports from other nearby stations

  
Tides and Currents Weather Stations Pressure Air Temp Water Temp Dewpoint Dewpoint Depression Visibility Wind Speed Wind Dir Waves Ship Positions
date/time (UTC)wind fromknots sea level pressurealtimeterstation pressurevisibilityair tempwater tempwave heightnotes
2017-Aug-21 19:09 080 1 gusting 8 17.2
2017-Aug-21 18:59 091 1 gusting 8 17.2
2017-Aug-21 18:49 093 2 gusting 6 17.2
2017-Aug-21 18:39 095 0 gusting 6 17.2
2017-Aug-21 18:29 095 17.2
2017-Aug-21 18:19 095 1 gusting 6 17.2
2017-Aug-21 18:09 095 1 gusting 6 16.7
2017-Aug-21 17:59 099 2 gusting 8 16.7
2017-Aug-21 17:49 103 1 gusting 6 16.7
2017-Aug-21 17:39 106 2 gusting 7 16.1
2017-Aug-21 17:29 108 2 gusting 7 16.7
2017-Aug-21 17:19 116 2 gusting 8 16.7
2017-Aug-21 17:09 119 1 gusting 6 17.2
2017-Aug-21 16:59 119 1 gusting 6 17.2
2017-Aug-21 16:49 119 1 gusting 7 17.2
2017-Aug-21 16:39 122 17.2
2017-Aug-21 16:29 122 17.2
2017-Aug-21 16:19 123 2 gusting 8 17.2
2017-Aug-21 16:09 126 3 gusting 8 17.2
2017-Aug-21 15:59 130 2 gusting 8 16.7
2017-Aug-21 15:50 131 1 gusting 8 15.6
2017-Aug-21 15:49 131 0 gusting 8 15.0
2017-Aug-21 15:39 131 13.9
2017-Aug-21 15:29 13.9
2017-Aug-21 15:19 14.4
2017-Aug-21 15:09 14.4
2017-Aug-21 14:59 15.0
2017-Aug-21 14:49 15.0
2017-Aug-21 14:39 131 15.0
2017-Aug-21 14:29 15.6
2017-Aug-21 14:20 16.1
2017-Aug-21 14:19 16.1
2017-Aug-21 14:09 132 16.7
2017-Aug-21 13:59 132 16.7
2017-Aug-21 13:49 132 0 gusting 5 16.7
2017-Aug-21 13:39 131 16.7
2017-Aug-21 13:29 131 16.7
2017-Aug-21 13:19 132 16.7
2017-Aug-21 13:10 132 16.7
2017-Aug-21 13:09 132 16.7
2017-Aug-21 12:59 132 16.7
2017-Aug-21 12:49 132 16.7
2017-Aug-21 12:39 132 16.7
2017-Aug-21 12:29 131 16.7
2017-Aug-21 12:19 132 16.1
2017-Aug-21 12:09 131 16.1
2017-Aug-21 11:59 16.1
2017-Aug-21 11:49 132 16.1
2017-Aug-21 11:39 131 16.1
2017-Aug-21 11:29 132 16.7
2017-Aug-21 11:19 16.7
2017-Aug-21 11:09 16.7
2017-Aug-21 10:59 132 17.2
2017-Aug-21 10:49 131 17.2
2017-Aug-21 10:41 131 17.2
2017-Aug-21 10:31 132 0 gusting 3 17.8
2017-Aug-21 10:21 132 17.8
2017-Aug-21 10:11 132 17.8
2017-Aug-21 10:01 132 0 gusting 5 17.8
2017-Aug-21 09:51 132 17.8
2017-Aug-21 09:41 132 0 gusting 3 17.8
2017-Aug-21 09:31 131 18.3
2017-Aug-21 09:21 132 0 gusting 5 18.3
2017-Aug-21 09:11 132 0 gusting 8 18.3
2017-Aug-21 09:01 134 17.8
2017-Aug-21 08:51 134 0 gusting 6 17.8
2017-Aug-21 08:41 134 0 gusting 6 17.8
2017-Aug-21 08:31 134 0 gusting 6 17.8
2017-Aug-21 08:21 139 0 gusting 8 17.8
2017-Aug-21 08:11 144 17.8
2017-Aug-21 08:01 144 17.8
2017-Aug-21 07:51 144 17.8
2017-Aug-21 07:41 144 17.8
2017-Aug-21 07:31 144 17.8
2017-Aug-21 07:21 146 0 gusting 7 18.3
2017-Aug-21 07:11 148 0 gusting 8 18.3
2017-Aug-21 07:01 157 1 gusting 8 18.9
2017-Aug-21 06:51 163 18.9
2017-Aug-21 06:41 160 18.9
2017-Aug-21 06:31 150 0 gusting 7 18.9
2017-Aug-21 06:21 147 0 gusting 5 18.9
2017-Aug-21 06:11 144 18.9
2017-Aug-21 06:01 144 0 gusting 3 19.4
2017-Aug-21 05:51 155 0 gusting 8 19.4
2017-Aug-21 05:41 156 19.4
2017-Aug-21 05:31 156 18.9
2017-Aug-21 05:21 156 18.9
2017-Aug-21 05:11 156 0 gusting 3 18.9
2017-Aug-21 05:01 156 0 gusting 6 19.4
2017-Aug-21 04:51 156 1 gusting 6 19.4
2017-Aug-21 04:41 157 0 gusting 6 18.9
2017-Aug-21 04:31 157 18.9
2017-Aug-21 04:21 157 0 gusting 3 18.9
2017-Aug-21 04:11 157 1 gusting 8 18.9
2017-Aug-21 04:01 157 1 gusting 8 18.9
2017-Aug-21 03:51 154 1 gusting 9 18.9
2017-Aug-21 03:41 153 1 gusting 8 18.3
2017-Aug-21 03:31 153 0 gusting 3 18.3
2017-Aug-21 03:21 153 18.3
2017-Aug-21 03:11 153 0 gusting 5 18.3
2017-Aug-21 03:01 153 0 gusting 3 18.3
2017-Aug-21 02:51 153 0 gusting 7 18.3
2017-Aug-21 02:41 153 0 gusting 3 18.3
2017-Aug-21 02:31 153 0 gusting 3 18.3
2017-Aug-21 02:21 153 0 gusting 3 18.3
2017-Aug-21 02:11 153 18.3
2017-Aug-21 02:01 153 1 gusting 3 18.3
2017-Aug-21 01:51 153 18.3
2017-Aug-21 01:41 155 0 gusting 7 18.3
2017-Aug-21 01:31 161 1 gusting 8 18.3
2017-Aug-21 01:21 163 1 gusting 8 18.3
2017-Aug-21 01:11 162 1 gusting 8 18.3
2017-Aug-21 01:01 186 2 gusting 8 17.8
2017-Aug-21 00:51 187 1 gusting 6 17.8
2017-Aug-21 00:41 187 2 gusting 7 17.2
2017-Aug-21 00:31 188 2 gusting 8 17.8
2017-Aug-21 00:21 188 2 gusting 8 17.8
2017-Aug-21 00:11 189 2 gusting 7 17.8
2017-Aug-21 00:01 191 5 gusting 9 17.8
2017-Aug-20 23:51 202 3 gusting 9 17.8
2017-Aug-20 23:41 204 2 gusting 8 17.2
2017-Aug-20 23:31 205 3 gusting 8 16.7
2017-Aug-20 23:21 205 1 gusting 7 16.7
2017-Aug-20 23:11 202 3 gusting 8 16.7
2017-Aug-20 23:01 198 3 gusting 9 16.1
2017-Aug-20 22:51 196 2 gusting 8 16.1
2017-Aug-20 22:41 186 3 gusting 8 15.6
2017-Aug-20 22:31 166 2 gusting 8 15.6
2017-Aug-20 22:21 162 0 gusting 6 15.0
2017-Aug-20 22:11 160 13.9
2017-Aug-20 22:01 160 12.8
2017-Aug-20 21:51 160 12.2
2017-Aug-20 21:41 161 12.2
2017-Aug-20 21:31 160 11.7
2017-Aug-20 21:21 160 11.1
2017-Aug-20 21:11 160 10.0
2017-Aug-20 21:01 159 9.4
2017-Aug-20 20:51 159 9.4
2017-Aug-20 20:41 160 10.0
2017-Aug-20 20:31 160 10.0
2017-Aug-20 20:21 160 9.4
2017-Aug-20 20:11 159 9.4
2017-Aug-20 20:01 160 9.4
2017-Aug-20 19:51 160 10.0
2017-Aug-20 19:41 160 10.0
2017-Aug-20 19:31 160 10.0
2017-Aug-20 19:21 160 9.4
2017-Aug-20 19:11 160 8.9
2017-Aug-20 19:01 160 8.9
2017-Aug-20 18:51 160 8.3
2017-Aug-20 18:41 159 8.3
2017-Aug-20 18:31 160 8.3
2017-Aug-20 18:21 159 8.3
2017-Aug-20 18:11 160 8.9
2017-Aug-20 18:01 160 8.9
2017-Aug-20 17:51 160 8.9
2017-Aug-20 17:41 9.4
2017-Aug-20 17:31 160 9.4
2017-Aug-20 17:21 9.4
2017-Aug-20 17:11 160 9.4
2017-Aug-20 17:01 160 9.4
2017-Aug-20 16:51 160 9.4
2017-Aug-20 16:41 160 9.4
2017-Aug-20 16:31 159 9.4
2017-Aug-20 16:21 159 9.4
2017-Aug-20 16:11 160 10.0
2017-Aug-20 16:01 160 10.0
2017-Aug-20 15:51 160 10.6
2017-Aug-20 15:41 160 10.0
2017-Aug-20 15:31 160 10.0
2017-Aug-20 15:21 160 10.0
2017-Aug-20 15:11 159 10.0
2017-Aug-20 15:01 160 10.0
2017-Aug-20 14:51 160 10.0
2017-Aug-20 14:41 160 10.0
2017-Aug-20 14:31 160 10.6
2017-Aug-20 14:21 160 10.0
2017-Aug-20 14:11 160 9.4
2017-Aug-20 14:01 160 9.4
2017-Aug-20 13:51 159 9.4
2017-Aug-20 13:41 160 9.4
2017-Aug-20 13:31 159 9.4
2017-Aug-20 13:21 160 9.4
2017-Aug-20 13:11 10.0
2017-Aug-20 13:01 10.0
2017-Aug-20 12:51 10.0
2017-Aug-20 12:41 10.0
2017-Aug-20 12:31 10.0
2017-Aug-20 12:21 10.6
2017-Aug-20 12:11 10.6
2017-Aug-20 12:01 10.6
2017-Aug-20 11:51 159 10.6
2017-Aug-20 11:41 10.6
2017-Aug-20 11:31 10.6
2017-Aug-20 11:21 160 11.1
2017-Aug-20 11:11 10.6
2017-Aug-20 11:01 11.1
2017-Aug-20 10:51 159 11.1
2017-Aug-20 10:41 11.1
2017-Aug-20 10:31 160 11.7
2017-Aug-20 10:21 159 11.7
2017-Aug-20 10:11 159 12.2
2017-Aug-20 10:01 159 12.2
2017-Aug-20 09:51 159 12.8
2017-Aug-20 09:41 160 12.8
2017-Aug-20 09:31 160 12.2
2017-Aug-20 09:21 160 12.2
2017-Aug-20 09:11 159 12.8
2017-Aug-20 09:01 13.3
2017-Aug-20 08:51 13.3
2017-Aug-20 08:41 159 13.9
2017-Aug-20 08:31 14.4
2017-Aug-20 08:21 15.0
2017-Aug-20 08:11 15.6
2017-Aug-20 08:01 16.1
2017-Aug-20 07:51 16.7
2017-Aug-20 07:41 16.7
2017-Aug-20 07:31 160 17.2
2017-Aug-20 07:21 160 17.2
2017-Aug-20 07:11 159 17.8
2017-Aug-20 07:01 159 18.3
2017-Aug-20 06:51 159 0 gusting 6 18.3
2017-Aug-20 06:41 160 18.3
2017-Aug-20 06:31 159 0 gusting 5 18.3
2017-Aug-20 06:21 159 0 gusting 7 18.3
2017-Aug-20 06:11 142 0 gusting 6 18.9
2017-Aug-20 06:01 137 18.9
2017-Aug-20 05:51 141 0 gusting 3 18.9
2017-Aug-20 05:41 143 1 gusting 6 18.9
2017-Aug-20 05:31 142 2 gusting 8 18.9
2017-Aug-20 05:21 146 1 gusting 7 18.9
2017-Aug-20 05:11 151 1 gusting 8 19.4
2017-Aug-20 05:01 126 1 gusting 6 18.9
2017-Aug-20 04:51 124 1 gusting 8 18.9
2017-Aug-20 04:41 127 2 gusting 11 18.9
2017-Aug-20 04:31 137 2 gusting 8 19.4
2017-Aug-20 04:21 151 3 gusting 11 18.9
2017-Aug-20 04:11 135 1 gusting 8 19.4
2017-Aug-20 04:01 147 5 gusting 12 18.9
2017-Aug-20 03:51 142 2 gusting 8 19.4
2017-Aug-20 03:41 116 1 gusting 11 19.4
2017-Aug-20 03:31 151 6 gusting 11 18.9
2017-Aug-20 03:21 171 5 gusting 12 19.4
2017-Aug-20 03:11 156 2 gusting 9 18.9
2017-Aug-20 03:01 182 5 gusting 12 18.9
2017-Aug-20 02:51 181 3 gusting 16 18.9
2017-Aug-20 02:41 160 1 gusting 8 18.9
2017-Aug-20 02:31 182 3 gusting 9 18.3
2017-Aug-20 02:21 198 3 gusting 15 18.3
2017-Aug-20 02:11 169 2 gusting 9 18.3
2017-Aug-20 02:01 170 3 gusting 12 18.3
2017-Aug-20 01:51 172 5 gusting 12 17.8
2017-Aug-20 01:41 182 6 gusting 14 17.8
2017-Aug-20 01:31 186 7 gusting 14 17.2
2017-Aug-20 01:21 193 6 gusting 15 17.8
2017-Aug-20 01:11 197 6 gusting 15 17.2
2017-Aug-20 01:01 185 5 gusting 15 17.2
2017-Aug-20 00:51 197 6 gusting 14 17.2
2017-Aug-20 00:41 189 6 gusting 16 16.7
2017-Aug-20 00:31 190 6 gusting 14 16.7
2017-Aug-20 00:21 204 5 gusting 12 16.7
2017-Aug-20 00:11 193 6 gusting 16 16.1
2017-Aug-20 00:01 199 6 gusting 14 16.1
2017-Aug-19 23:51 214 6 gusting 14 15.6
2017-Aug-19 23:41 212 6 gusting 17 15.6
2017-Aug-19 23:31 202 7 gusting 17 15.6
2017-Aug-19 23:21 194 6 gusting 11 15.0
2017-Aug-19 23:11 195 6 gusting 12 15.0
2017-Aug-19 23:01 202 3 gusting 11 14.4
2017-Aug-19 22:51 213 6 gusting 12 14.4
2017-Aug-19 22:41 217 6 gusting 10 13.9
2017-Aug-19 22:31 216 5 gusting 13 13.9
2017-Aug-19 22:21 214 2 gusting 8 13.9
2017-Aug-19 22:11 215 5 gusting 12 13.3
2017-Aug-19 22:01 218 5 gusting 11 13.3
2017-Aug-19 21:51 227 3 gusting 8 12.8
2017-Aug-19 21:41 243 2 gusting 11 12.2
2017-Aug-19 21:31 266 0 gusting 7 11.7
2017-Aug-19 21:21 268 1 gusting 6 11.7
2017-Aug-19 21:11 270 0 gusting 6 11.1
2017-Aug-19 21:01 271 10.6
2017-Aug-19 20:51 272 0 gusting 5 10.0
2017-Aug-19 20:41 272 10.0
2017-Aug-19 20:31 272 10.0
2017-Aug-19 20:21 272 0 gusting 3 10.0
2017-Aug-19 20:11 270 0 gusting 3 10.0
2017-Aug-19 20:01 231 0 gusting 6 10.0
2017-Aug-19 19:51 231 0 gusting 5 10.0
2017-Aug-19 19:41 231 10.6
2017-Aug-19 19:31 231 10.6
2017-Aug-19 19:21 231 0 gusting 5 10.6
2017-Aug-19 19:11 231 0 gusting 5 10.6
2017-Aug-19 19:01 228 0 gusting 8 10.6